Location: Ripley
(48.3812°N, 115.4473°W)
Time: 16:22:05
(UTC+00:00)

CAS-6 - Pass Details

Date: 05 July 2022
Orbit: 613 x 634 km, 97.9° (Epoch: 19 August)

Event Time Altitude Azimuth Distance (km) Brightness Sun altitude
Exits shadow 05:03:55 13° 126° (SE) 1,823 ? -10.1°
Maximum altitude 05:07:18 32° 67° (ENE) 1,075 ? -10.4°
Drops below altitude 10° 05:11:10 10° 4° (N) 1,999 ? -10.8°
Sets 05:13:31 0° 355° (N) 2,907 ? -11.0°
